ARIANE 5 DEB (SYLDA), 44478

Orbit data source: Space-Track

ARIANE 5 DEB (SYLDA), 44478 is space debris originally from a launch on Tue, 06 Aug 2019 UTC launched from the French Guiana (FRGUI). Debris objects in space refer to the collection of defunct objects orbiting the Earth. Examples of debris include non-operational satellites, rocket bodies, and fragments generated from explosions, collisions, or faulty payload assembly.

Loading next visibility...
ARIANE 5 DEB (SYLDA) details
Identifier
44478, 2019-049D
Orbit
Active
Last TLE update6 hours ago
Origin
Flag of FRArianespace (FR)
ManufacturerADS/Bremen
MissionSpacecraft
Bus & MotorSYLDA 5, Unknown motor
Mass440 kg wet, 440 kg dry
Launch date (UTC)
2019-08-06 (5 years ago)
Launch vehicleUnknown
Launch site
French Guiana (FRGUI)
Object type
Payload
Rocket body
Debris
Shape & HBRCyl, 5.5 m
Radar Cross Section27.391 m², Large (>1 m²)

Expand to show TLE details & history

TLE from 6 hours ago
0 ARIANE 5 DEB (SYLDA)
1 44478U 19049D   24361.57925852  .00282978  00000-0  72538-2 0  9992
2 44478   4.3267 192.4834 4229039 294.7147  27.4414  7.09079683 77077
Epoch: 2024-12-26T13:54Z
Definitive object data (Epoch: 2024-12-26T13:54:07.936Z)
Latitude
Longitude-111.60624°
Altitude1,606.371 km
Speed8.063 km/s
True Right ascension12h 49m 56s
True Declination0° 00' 00"
Sunlit
Object was in daylight at TLE epoch
Visualization TLE readout
Latitude-4.10572°
Longitude138.53693°
Altitude856.009 km
Speed8.682 km/s
Apparent Right ascension06h 21m 36s
Apparent Declination-21° 27' 16"
Sunlit
Object is in full shadow
Visualization observer readout
Local Sidereal Time19:37:37
Azimuth46.854° ENE
Elevation-65.452°
Doppler factor1
Orbital elements
Apogee altitude9,913.907 km
Perigee altitude229.53 km
Semi-major axis11,449.855 km
Eccentricity0.4229039
Inclination4.3267°
RAAN192.4834°
Arg. of periapsis294.7147°
True anomaly65.29355°
Mean anomaly27.4414°
Eccentric anomaly44.39236°
Mean motion1.77151 °/min
BSTAR0.0072538
Orbital period203.22 mins
Loading maneuver chart data...
Loading historical data...
Loading historical data...
Loading historical data...
Loading historical data...
Loading historical data...
Loading historical data...
Loading historical data...
Other satellites on launch #49 in the year 2019 (2019-08-06 UTC)

ARIANE 5 DEB (SYLDA) Visibility forecast

Observer location: undefined°, undefined

Span
Click to sort rows by Start time (UTC) header in descending order
Start Az.
Max El. time (UTC)
Max El. Az.
Max El.
End time (UTC)
End Az.
106 mins2024-12-26 21:20:50.050Z239.175° WSW2024-12-26 22:20:50.050Z190.65° SSW29.072°2024-12-26 23:06:50.050Z138.322° SSE
36 mins2024-12-27 02:05:50.050Z237.462° WSW2024-12-27 02:28:50.050Z212.917° SW14.651°2024-12-27 02:41:50.050Z185.45° SSW
83 mins2024-12-27 17:12:50.050Z207.863° SW2024-12-27 17:36:50.050Z160.876° S25.684°2024-12-27 18:35:50.050Z116.936° SE
|